,,Stat5,,Stat1,,Stat2,,Stat3,,Stat4,,Wind1,,Wind1,
time,status,PA1M_AVG,status,PR1M_SUM,status,RH1M_AVG,status,SR1M_AVG,status,TA1M_AVG,status,W1dAve1m,status,W1sAve1m,
2002-12-27, 00:00:00,VALID,919.255,VALID,0,VALID,99.6442,VALID,-0.0169808,VALID,18.7833,VALID,302,VALID,0.297363,
2002-12-27, 00:01:00,VALID,919.254,VALID,0,VALID,99.6442,VALID,0.0169808,VALID,18.7902,VALID,302,VALID,0.240709,
2002-12-27, 00:02:00,VALID,919.249,VALID,0,VALID,99.6506,VALID,0,VALID,18.7937,VALID,302,VALID,0.138338,
2002-12-27, 00:03:00,VALID,919.238,VALID,0,VALID,99.6658,VALID,0,VALID,18.79,VALID,302,VALID,0,
2002-12-27, 00:04:00,VALID,919.224,VALID,0,VALID,99.6684,VALID,0.0169808,VALID,18.8226,VALID,302,VALID,0,
2002-12-27, 00:05:00,VALID,919.21,VALID,0,VALID,99.6785,VALID,0,VALID,18.8062,VALID,302,VALID,0.000844595,
2002-12-27, 00:06:00,VALID,919.206,VALID,0,VALID,99.6862,VALID,0.0169808,VALID,18.8089,VALID,302,VALID,0,
2002-12-27, 00:07:00,VALID,919.206,VALID,0,VALID,99.6874,VALID,0,VALID,18.8094,VALID,302,VALID,0.000952744,
2002-12-27, 00:08:00,VALID,919.186,VALID,0,VALID,99.6874,VALID,-0.0339617,VALID,18.7999,VALID,302,VALID,0.167668,
2002-12-27, 00:09:00,VALID,919.171,VALID,0,VALID,99.6963,VALID,-0.0169808,VALID,18.7739,VALID,302,VALID,0.239654,
2002-12-27, 00:10:00,VALID,919.165,VALID,0.2,VALID,99.6938,VALID,0,VALID,18.7577,VALID,302,VALID,0.262669,
2002-12-27, 00:11:00,VALID,919.145,VALID,0,VALID,99.6887,VALID,0.0169808,VALID,18.7415,VALID,302,VALID,0.303516,
2002-12-27, 00:12:00,VALID,919.136,VALID,0,VALID,99.69,VALID,-0.0169808,VALID,18.7512,VALID,303,VALID,0.0171875,
2002-12-27, 00:13:00,VALID,919.136,VALID,0,VALID,99.7027,VALID,0,VALID,18.7411,VALID,303,VALID,0,
2002-12-27, 00:14:00,VALID,919.127,VALID,0,VALID,99.7052,VALID,0,VALID,18.7642,VALID,303,VALID,0,
2002-12-27, 00:15:00,VALID,919.112,VALID,0,VALID,99.7167,VALID,0,VALID,18.7741,VALID,303,VALID,0,
2002-12-27, 00:16:00,VALID,919.112,VALID,0,VALID,99.718,VALID,0,VALID,18.7801,VALID,303,VALID,0,
2002-12-27, 00:17:00,VALID,919.099,VALID,0,VALID,99.7319,VALID,0.0169808,VALID,18.7962,VALID,303,VALID,0,
2002-12-27, 00:18:00,VALID,919.097,VALID,0,VALID,99.7256,VALID,-0.0169808,VALID,18.7962,VALID,303,VALID,0,
2002-12-27, 00:19:00,VALID,919.095,VALID,0,VALID,99.7383,VALID,0,VALID,18.8191,VALID,303,VALID,0,
2002-12-27, 00:20:00,VALID,919.087,VALID,0,VALID,99.7523,VALID,0,VALID,18.8288,VALID,303,VALID,0,
2002-12-27, 00:21:00,VALID,919.078,VALID,0,VALID,99.7459,VALID,-0.0169808,VALID,18.832,VALID,303,VALID,0,
2002-12-27, 00:22:00,VALID,919.069,VALID,0,VALID,99.7447,VALID,0,VALID,18.8452,VALID,303,VALID,0,
2002-12-27, 00:23:00,VALID,919.055,VALID,0.2,VALID,99.7434,VALID,0,VALID,18.8412,VALID,303,VALID,0,
2002-12-27, 00:24:00,VALID,919.051,VALID,0,VALID,99.7447,VALID,0,VALID,18.8512,VALID,304,VALID,0,
2002-12-27, 00:25:00,VALID,919.047,VALID,0,VALID,99.7497,VALID,0,VALID,18.8442,VALID,304,VALID,0,
2002-12-27, 00:26:00,VALID,919.033,VALID,0,VALID,99.7523,VALID,0,VALID,18.8604,VALID,304,VALID,0,
2002-12-27, 00:27:00,VALID,919.029,VALID,0,VALID,99.751,VALID,0,VALID,18.8738,VALID,304,VALID,0,
2002-12-27, 00:28:00,VALID,919.018,VALID,0,VALID,99.7599,VALID,0,VALID,18.8705,VALID,304,VALID,0,
2002-12-27, 00:29:00,VALID,918.999,VALID,0,VALID,99.7574,VALID,0,VALID,18.8671,VALID,304,VALID,0,
2002-12-27, 00:30:00,VALID,918.997,VALID,0,VALID,99.751,VALID,-0.0169808,VALID,18.874,VALID,305,VALID,0,
2002-12-27, 00:31:00,VALID,918.991,VALID,0,VALID,99.7561,VALID,0,VALID,18.8772,VALID,304,VALID,0,
2002-12-27, 00:32:00,VALID,918.98,VALID,0.2,VALID,99.7625,VALID,0,VALID,18.8897,VALID,328,VALID,0.272035,
2002-12-27, 00:33:00,VALID,918.959,VALID,0,VALID,99.7587,VALID,0.0339617,VALID,18.9287,VALID,360,VALID,0.23966,
2002-12-27, 00:34:00,VALID,918.958,VALID,0,VALID,99.7701,VALID,0,VALID,18.9548,VALID,5,VALID,0.392188,
2002-12-27, 00:35:00,VALID,918.938,VALID,0,VALID,99.7637,VALID,0,VALID,18.9705,VALID,28,VALID,0.583984,
2002-12-27, 00:36:00,VALID,918.937,VALID,0,VALID,99.7599,VALID,0,VALID,18.9836,VALID,20,VALID,0.613839,
2002-12-27, 00:37:00,VALID,918.917,VALID,0,VALID,99.7765,VALID,0,VALID,18.9933,VALID,24,VALID,0.692096,
2002-12-27, 00:38:00,VALID,918.913,VALID,0,VALID,99.7777,VALID,0,VALID,18.9898,VALID,22,VALID,0.69634,
2002-12-27, 00:39:00,VALID,918.916,VALID,0,VALID,99.7841,VALID,-0.0169808,VALID,18.9965,VALID,26,VALID,0.728571,
2002-12-27, 00:40:00,VALID,918.905,VALID,0,VALID,99.7803,VALID,0.0169808,VALID,18.9998,VALID,24,VALID,0.223438,
2002-12-27, 00:41:00,VALID,918.9,VALID,0,VALID,99.7777,VALID,0,VALID,18.9769,VALID,288,VALID,0.540064,
2002-12-27, 00:42:00,VALID,918.927,VALID,0,VALID,99.7688,VALID,-0.0169808,VALID,18.9446,VALID,234,VALID,0.3125,
2002-12-27, 00:43:00,VALID,918.929,VALID,0.2,VALID,99.7803,VALID,0,VALID,18.9352,VALID,240,VALID,0.127232,
2002-12-27, 00:44:00,VALID,918.948,VALID,0,VALID,99.7752,VALID,0.0169808,VALID,18.9128,VALID,213,VALID,0.178865,
2002-12-27, 00:45:00,VALID,918.935,VALID,0,VALID,99.7726,VALID,0,VALID,18.8964,VALID,219,VALID,0.0305804,
2002-12-27, 00:46:00,VALID,918.905,VALID,0,VALID,99.7714,VALID,0,VALID,18.8966,VALID,291,VALID,0.394761,
2002-12-27, 00:47:00,VALID,918.887,VALID,0,VALID,99.7815,VALID,0.0169808,VALID,18.9093,VALID,24,VALID,1.5662,
2002-12-27, 00:48:00,VALID,918.868,VALID,0,VALID,99.7752,VALID,0,VALID,18.9155,VALID,8,VALID,1.38884,
2002-12-27, 00:49:00,VALID,918.854,VALID,0.2,VALID,99.7765,VALID,0,VALID,18.9125,VALID,28,VALID,1.43996,
2002-12-27, 00:50:00,VALID,918.862,VALID,0,VALID,99.7739,VALID,0.0169808,VALID,18.9381,VALID,20,VALID,0.822917,
2002-12-27, 00:51:00,VALID,918.848,VALID,0,VALID,99.7815,VALID,0,VALID,18.9411,VALID,38,VALID,0.244485,
2002-12-27, 00:52:00,VALID,918.858,VALID,0,VALID,99.793,VALID,0,VALID,18.9451,VALID,6,VALID,0.0167411,
2002-12-27, 00:53:00,VALID,918.858,VALID,0,VALID,99.7765,VALID,0.0169808,VALID,18.9545,VALID,4,VALID,0.125391,
2002-12-27, 00:54:00,VALID,918.834,VALID,0,VALID,99.7968,VALID,0,VALID,18.9476,VALID,4,VALID,0.585938,
2002-12-27, 00:55:00,VALID,918.793,VALID,0.2,VALID,99.7879,VALID,-0.0169808,VALID,18.9714,VALID,10,VALID,1.00827,
2002-12-27, 00:56:00,VALID,918.747,VALID,0,VALID,99.7854,VALID,0,VALID,18.9679,VALID,25,VALID,1.86451,
2002-12-27, 00:57:00,VALID,918.703,VALID,0,VALID,99.793,VALID,0,VALID,18.9384,VALID,16,VALID,1.6692,
2002-12-27, 00:58:01,VALID,918.656,VALID,0,VALID,99.779,VALID,0,VALID,18.9414,VALID,19,VALID,1.8721,
2002-12-27, 00:59:01,VALID,918.629,VALID,0,VALID,99.7828,VALID,0,VALID,18.9448,VALID,22,VALID,1.65905,
2002-12-27, 01:00:00,VALID,918.631,VALID,0,VALID,99.7841,VALID,-0.0169808,VALID,18.9287,VALID,25,VALID,1.10133,
2002-12-27, 01:01:00,VALID,918.639,VALID,0,VALID,99.7968,VALID,-0.0169808,VALID,18.9118,VALID,339,VALID,0.55625,
2002-12-27, 01:02:00,VALID,918.622,VALID,0,VALID,99.7828,VALID,0,VALID,18.8964,VALID,25,VALID,0.544531,
2002-12-27, 01:03:00,VALID,918.616,VALID,0.2,VALID,99.7968,VALID,-0.0169808,VALID,18.9028,VALID,14,VALID,0.948214,
2002-12-27, 01:04:00,VALID,918.602,VALID,0,VALID,99.7993,VALID,0,VALID,18.9061,VALID,13,VALID,1.08915,
2002-12-27, 01:05:00,VALID,918.584,VALID,0,VALID,99.7968,VALID,0,VALID,18.8798,VALID,10,VALID,0.87685,
2002-12-27, 01:06:00,VALID,918.57,VALID,0,VALID,99.8006,VALID,0,VALID,18.8837,VALID,23,VALID,1.10312,
2002-12-27, 01:07:00,VALID,918.56,VALID,0,VALID,99.7866,VALID,0.0169808,VALID,18.8894,VALID,16,VALID,0.887054,
2002-12-27, 01:08:01,VALID,918.559,VALID,0,VALID,99.8082,VALID,0.0169808,VALID,18.8865,VALID,20,VALID,0.760617,
2002-12-27, 01:09:00,VALID,918.542,VALID,0,VALID,99.8057,VALID,0.0169808,VALID,18.8961,VALID,26,VALID,0.508272,
2002-12-27, 01:10:00,VALID,918.534,VALID,0,VALID,99.8121,VALID,0,VALID,18.9031,VALID,28,VALID,0.603125,
2002-12-27, 01:11:00,VALID,918.523,VALID,0,VALID,99.8108,VALID,0,VALID,18.9031,VALID,17,VALID,0.408789,
2002-12-27, 01:12:00,VALID,918.513,VALID,0,VALID,99.8133,VALID,-0.0339617,VALID,18.9125,VALID,18,VALID,0.614955,
2002-12-27, 01:13:00,VALID,918.509,VALID,0.2,VALID,99.8108,VALID,0.0169808,VALID,18.919,VALID,23,VALID,0.682445,
2002-12-27, 01:14:00,VALID,918.494,VALID,0,VALID,99.8171,VALID,-0.0339617,VALID,18.9317,VALID,20,VALID,0.89741,
2002-12-27, 01:15:00,VALID,918.484,VALID,0,VALID,99.8057,VALID,-0.0169808,VALID,18.9384,VALID,12,VALID,0.841518,
2002-12-27, 01:16:00,VALID,918.473,VALID,0,VALID,99.7993,VALID,0,VALID,18.9515,VALID,22,VALID,0.779464,
2002-12-27, 01:17:00,VALID,918.467,VALID,0,VALID,99.8133,VALID,0,VALID,18.9647,VALID,24,VALID,0.88121,
2002-12-27, 01:18:00,VALID,918.452,VALID,0,VALID,99.8095,VALID,0,VALID,18.9677,VALID,12,VALID,0.920267,
2002-12-27, 01:19:00,VALID,918.44,VALID,0,VALID,99.807,VALID,-0.0169808,VALID,18.9677,VALID,24,VALID,0.941295,
2002-12-27, 01:20:00,VALID,918.42,VALID,0,VALID,99.8032,VALID,0,VALID,18.961,VALID,28,VALID,0.898438,
2002-12-27, 01:21:00,VALID,918.418,VALID,0.2,VALID,99.807,VALID,0,VALID,18.9677,VALID,23,VALID,0.921429,
2002-12-27, 01:22:00,VALID,918.412,VALID,0,VALID,99.8108,VALID,-0.0509425,VALID,18.9518,VALID,22,VALID,1.11949,
2002-12-27, 01:23:00,VALID,918.397,VALID,0,VALID,99.8171,VALID,-0.0849042,VALID,18.9493,VALID,16,VALID,0.861431,
2002-12-27, 01:24:00,VALID,918.396,VALID,0,VALID,99.8095,VALID,-0.101885,VALID,18.9617,VALID,12,VALID,0.841964,
2002-12-27, 01:25:01,VALID,918.394,VALID,0,VALID,99.8044,VALID,-0.0679233,VALID,18.9232,VALID,349,VALID,1.11071,
2002-12-27, 01:26:01,VALID,918.382,VALID,0,VALID,99.8146,VALID,-0.0849042,VALID,18.9008,VALID,13,VALID,1.13722,
2002-12-27, 01:27:00,VALID,918.391,VALID,0,VALID,99.8019,VALID,-0.0849042,VALID,18.8881,VALID,2,VALID,0.789292,
2002-12-27, 01:28:00,VALID,918.383,VALID,0,VALID,99.8121,VALID,-0.101885,VALID,18.8747,VALID,8,VALID,0.800223,
2002-12-27, 01:29:00,VALID,918.383,VALID,0,VALID,99.8184,VALID,-0.101885,VALID,18.9045,VALID,30,VALID,0.392773,
2002-12-27, 01:30:00,VALID,918.368,VALID,0,VALID,99.8171,VALID,-0.0849042,VALID,18.8946,VALID,17,VALID,0.676562,
2002-12-27, 01:31:00,VALID,918.35,VALID,0.2,VALID,99.8133,VALID,-0.0849042,VALID,18.8715,VALID,354,VALID,0.410386,
2002-12-27, 01:32:00,VALID,918.349,VALID,0,VALID,99.807,VALID,-0.0849042,VALID,18.8916,VALID,17,VALID,0.810855,
2002-12-27, 01:33:00,VALID,918.313,VALID,0,VALID,99.8197,VALID,-0.101885,VALID,18.8943,VALID,12,VALID,0.4,
2002-12-27, 01:34:01,VALID,918.307,VALID,0,VALID,99.8171,VALID,-0.101885,VALID,18.8978,VALID,356,VALID,0.557589,
2002-12-27, 01:35:01,VALID,918.279,VALID,0,VALID,99.8171,VALID,-0.101885,VALID,18.8683,VALID,14,VALID,0.921074,
2002-12-27, 01:36:00,VALID,918.265,VALID,0,VALID,99.8248,VALID,-0.101885,VALID,18.8817,VALID,296,VALID,0.214844,
2002-12-27, 01:37:00,VALID,918.255,VALID,0,VALID,99.8222,VALID,-0.0169808,VALID,18.8839,VALID,295,VALID,0,
2002-12-27, 01:38:00,VALID,918.245,VALID,0,VALID,99.826,VALID,0,VALID,18.8835,VALID,20,VALID,0.101172,
2002-12-27, 01:39:00,VALID,918.218,VALID,0,VALID,99.8311,VALID,0,VALID,18.8929,VALID,22,VALID,0.387277,
2002-12-27, 01:40:01,VALID,918.199,VALID,0,VALID,99.8286,VALID,0,VALID,18.922,VALID,20,VALID,0.82261,
2002-12-27, 01:41:00,VALID,918.172,VALID,0,VALID,99.8286,VALID,0.0169808,VALID,18.9384,VALID,23,VALID,1.66262,
2002-12-27, 01:42:00,VALID,918.147,VALID,0,VALID,99.8299,VALID,0.0339617,VALID,18.9317,VALID,20,VALID,1.23571,
2002-12-27, 01:43:01,VALID,918.13,VALID,0.2,VALID,99.8311,VALID,0.0169808,VALID,18.928,VALID,22,VALID,1.07121,
2002-12-27, 01:44:01,VALID,918.105,VALID,0,VALID,99.8388,VALID,0.0169808,VALID,18.9192,VALID,22,VALID,0.871394,
2002-12-27, 01:45:00,VALID,918.1,VALID,0,VALID,99.8299,VALID,0.0169808,VALID,18.9123,VALID,46,VALID,0.432675,
2002-12-27, 01:46:00,VALID,918.08,VALID,0,VALID,99.8324,VALID,0,VALID,18.9123,VALID,19,VALID,0.749554,
2002-12-27, 01:47:00,VALID,918.048,VALID,0,VALID,99.8337,VALID,0.0169808,VALID,18.8994,VALID,11,VALID,1.09375,
2002-12-27, 01:48:00,VALID,918.04,VALID,0,VALID,99.8362,VALID,0.0509425,VALID,18.8765,VALID,6,VALID,0.53817,
2002-12-27, 01:49:01,VALID,918.008,VALID,0,VALID,99.8388,VALID,0,VALID,18.8408,VALID,20,VALID,1.52045,
2002-12-27, 01:50:00,VALID,917.987,VALID,0,VALID,99.8362,VALID,0.0169808,VALID,18.8415,VALID,21,VALID,1.07648,
2002-12-27, 01:51:00,VALID,917.978,VALID,0,VALID,99.8413,VALID,0.0169808,VALID,18.8412,VALID,19,VALID,1.03772,
2002-12-27, 01:52:01,VALID,917.993,VALID,0,VALID,99.8337,VALID,-0.0509425,VALID,18.8389,VALID,21,VALID,0.716741,
2002-12-27, 01:53:01,VALID,917.976,VALID,0,VALID,99.8286,VALID,-0.0509425,VALID,18.8526,VALID,47,VALID,0.362981,
2002-12-27, 01:54:00,VALID,917.979,VALID,0,VALID,99.8273,VALID,-0.0339617,VALID,18.8357,VALID,47,VALID,0.465763,
2002-12-27, 01:55:00,VALID,917.952,VALID,0,VALID,99.826,VALID,-0.0849042,VALID,18.817,VALID,24,VALID,0.683482,
2002-12-27, 01:56:00,VALID,917.943,VALID,0,VALID,99.8311,VALID,-0.0679233,VALID,18.8295,VALID,348,VALID,0.338281,
2002-12-27, 01:57:00,VALID,917.931,VALID,0,VALID,99.8362,VALID,-0.0679233,VALID,18.8362,VALID,17,VALID,0.929688,
2002-12-27, 01:58:00,VALID,917.913,VALID,0,VALID,99.8311,VALID,-0.101885,VALID,18.8422,VALID,25,VALID,0.629825,
2002-12-27, 01:59:00,VALID,917.895,VALID,0,VALID,99.8349,VALID,-0.0679233,VALID,18.8653,VALID,358,VALID,0.616571,
2002-12-27, 02:00:00,VALID,917.882,VALID,0,VALID,99.8413,VALID,-0.0679233,VALID,18.8613,VALID,26,VALID,0.51183,
2002-12-27, 02:01:01,VALID,917.855,VALID,0,VALID,99.8324,VALID,-0.0339617,VALID,18.8713,VALID,29,VALID,0.872321,
2002-12-27, 02:02:01,VALID,917.851,VALID,0,VALID,99.8362,VALID,-0.0679233,VALID,18.8713,VALID,23,VALID,0.985978,
2002-12-27, 02:03:00,VALID,917.833,VALID,0,VALID,99.8349,VALID,-0.0679233,VALID,18.8787,VALID,24,VALID,1.37017,
2002-12-27, 02:04:00,VALID,917.809,VALID,0,VALID,99.8362,VALID,-0.0849042,VALID,18.8722,VALID,25,VALID,1.35893,
2002-12-27, 02:05:00,VALID,917.789,VALID,0.2,VALID,99.8362,VALID,-0.0509425,VALID,18.8551,VALID,22,VALID,1.72539,
2002-12-27, 02:06:00,VALID,917.779,VALID,0,VALID,99.8362,VALID,-0.0339617,VALID,18.8523,VALID,20,VALID,1.53371,
2002-12-27, 02:07:00,VALID,917.759,VALID,0,VALID,99.8388,VALID,-0.0679233,VALID,18.8362,VALID,25,VALID,1.72358,
2002-12-27, 02:08:00,VALID,917.757,VALID,0,VALID,99.8426,VALID,-0.0679233,VALID,18.8066,VALID,27,VALID,1.53289,
2002-12-27, 02:09:00,VALID,917.723,VALID,0,VALID,99.8375,VALID,-0.0849042,VALID,18.8233,VALID,22,VALID,1.49174,
2002-12-27, 02:10:01,VALID,917.706,VALID,0,VALID,99.8464,VALID,-0.0679233,VALID,18.8131,VALID,21,VALID,1.57366,
2002-12-27, 02:11:01,VALID,917.696,VALID,0,VALID,99.8438,VALID,-0.0679233,VALID,18.8101,VALID,23,VALID,1.60958,
2002-12-27, 02:12:00,VALID,917.68,VALID,0,VALID,99.8438,VALID,-0.0679233,VALID,18.8041,VALID,23,VALID,1.61282,
2002-12-27, 02:13:00,VALID,917.658,VALID,0,VALID,99.8477,VALID,-0.101885,VALID,18.7875,VALID,20,VALID,1.6567,
2002-12-27, 02:14:00,VALID,917.651,VALID,0,VALID,99.8515,VALID,-0.0849042,VALID,18.7619,VALID,24,VALID,1.14727,
2002-12-27, 02:15:00,VALID,917.653,VALID,0,VALID,99.8438,VALID,-0.101885,VALID,18.7649,VALID,22,VALID,1.28549,
2002-12-27, 02:16:01,VALID,917.633,VALID,0,VALID,99.8464,VALID,-0.0849042,VALID,18.7817,VALID,26,VALID,1.27826,
2002-12-27, 02:17:00,VALID,917.625,VALID,0,VALID,99.8388,VALID,-0.101885,VALID,18.781,VALID,13,VALID,0.815378,
2002-12-27, 02:18:00,VALID,917.627,VALID,0,VALID,99.84,VALID,-0.0339617,VALID,18.7358,VALID,350,VALID,1.12723,
2002-12-27, 02:19:01,VALID,917.607,VALID,0,VALID,99.8553,VALID,-0.0679233,VALID,18.7231,VALID,18,VALID,0.714509,
2002-12-27, 02:20:01,VALID,917.598,VALID,0,VALID,99.8426,VALID,-0.0679233,VALID,18.7229,VALID,343,VALID,0.407252,
2002-12-27, 02:21:00,VALID,917.587,VALID,0,VALID,99.8451,VALID,-0.0509425,VALID,18.7321,VALID,19,VALID,0.615119,
2002-12-27, 02:22:00,VALID,917.57,VALID,0.2,VALID,99.8464,VALID,-0.0339617,VALID,18.7358,VALID,10,VALID,0.622991,
2002-12-27, 02:23:00,VALID,917.545,VALID,0,VALID,99.8591,VALID,0.0169808,VALID,18.7381,VALID,18,VALID,1.10469,
2002-12-27, 02:24:00,VALID,917.522,VALID,0,VALID,99.8578,VALID,0,VALID,18.7319,VALID,24,VALID,1.24754,
2002-12-27, 02:25:01,VALID,917.506,VALID,0,VALID,99.8578,VALID,0.0339617,VALID,18.7284,VALID,349,VALID,1.02505,
2002-12-27, 02:26:00,VALID,917.491,VALID,0,VALID,99.8604,VALID,0,VALID,18.6958,VALID,16,VALID,1.10979,
2002-12-27, 02:27:00,VALID,917.488,VALID,0,VALID,99.8642,VALID,0,VALID,18.706,VALID,17,VALID,0.496429,
2002-12-27, 02:28:01,VALID,917.472,VALID,0,VALID,99.8629,VALID,0,VALID,18.7122,VALID,17,VALID,0.389509,
2002-12-27, 02:29:01,VALID,917.471,VALID,0,VALID,99.8667,VALID,0,VALID,18.7055,VALID,360,VALID,0.36879,
2002-12-27, 02:30:00,VALID,917.456,VALID,0,VALID,99.8591,VALID,0,VALID,18.6963,VALID,2,VALID,0.742417,
2002-12-27, 02:31:00,VALID,917.452,VALID,0,VALID,99.8667,VALID,0,VALID,18.6894,VALID,15,VALID,1.09085,
2002-12-27, 02:32:00,VALID,917.435,VALID,0,VALID,99.8718,VALID,0,VALID,18.6933,VALID,14,VALID,0.630469,
2002-12-27, 02:33:00,VALID,917.401,VALID,0,VALID,99.8706,VALID,0,VALID,18.6834,VALID,14,VALID,1.03728,
2002-12-27, 02:34:00,VALID,917.399,VALID,0,VALID,99.868,VALID,0,VALID,18.6834,VALID,24,VALID,1.09352,
2002-12-27, 02:35:01,VALID,917.387,VALID,0,VALID,99.8756,VALID,-0.0169808,VALID,18.6899,VALID,2,VALID,0.634252,
2002-12-27, 02:36:01,VALID,917.371,VALID,0,VALID,99.8731,VALID,-0.0509425,VALID,18.6866,VALID,71,VALID,0.236384,
2002-12-27, 02:37:01,VALID,917.343,VALID,0,VALID,99.8807,VALID,0,VALID,18.6834,VALID,16,VALID,0.717272,
2002-12-27, 02:38:01,VALID,917.335,VALID,0,VALID,99.882,VALID,0,VALID,18.6931,VALID,14,VALID,0.538061,
2002-12-27, 02:39:01,VALID,917.327,VALID,0,VALID,99.8693,VALID,0.0169808,VALID,18.6899,VALID,338,VALID,0.367188,
2002-12-27, 02:40:01,VALID,917.317,VALID,0,VALID,99.8744,VALID,-0.0169808,VALID,18.6633,VALID,326,VALID,0.242411,
2002-12-27, 02:41:01,VALID,917.302,VALID,0,VALID,99.8782,VALID,0,VALID,18.6769,VALID,12,VALID,0.501953,
2002-12-27, 02:42:00,VALID,917.29,VALID,0,VALID,99.8731,VALID,-0.0169808,VALID,18.6864,VALID,13,VALID,0.43058,
2002-12-27, 02:43:00,VALID,917.279,VALID,0,VALID,99.8782,VALID,-0.0169808,VALID,18.6995,VALID,13,VALID,0.0328585,
2002-12-27, 02:44:00,VALID,917.266,VALID,0,VALID,99.8706,VALID,0,VALID,18.6869,VALID,13,VALID,0.144531,
2002-12-27, 02:45:01,VALID,917.264,VALID,0,VALID,99.8756,VALID,0,VALID,18.6769,VALID,13,VALID,0.265402,
2002-12-27, 02:46:01,VALID,917.266,VALID,0,VALID,99.8769,VALID,0,VALID,18.6899,VALID,356,VALID,0.0160714,
2002-12-27, 02:47:01,VALID,917.253,VALID,0,VALID,99.882,VALID,0,VALID,18.6797,VALID,329,VALID,0.00841346,
2002-12-27, 02:48:01,VALID,917.236,VALID,0,VALID,99.8718,VALID,-0.0169808,VALID,18.6804,VALID,334,VALID,0.178309,
2002-12-27, 02:49:00,VALID,917.232,VALID,0,VALID,99.8807,VALID,0.0339617,VALID,18.6728,VALID,354,VALID,0.104687,
2002-12-27, 02:50:01,VALID,917.218,VALID,0,VALID,99.8845,VALID,0,VALID,18.709,VALID,11,VALID,0.266406,
2002-12-27, 02:51:00,VALID,917.201,VALID,0,VALID,99.8807,VALID,0,VALID,18.7192,VALID,11,VALID,0.0107143,
2002-12-27, 02:52:01,VALID,917.204,VALID,0,VALID,99.882,VALID,0,VALID,18.7159,VALID,13,VALID,0.321232,
2002-12-27, 02:53:00,VALID,917.187,VALID,0,VALID,99.8871,VALID,0,VALID,18.7289,VALID,21,VALID,0.632196,
2002-12-27, 02:54:01,VALID,917.166,VALID,0,VALID,99.8833,VALID,0,VALID,18.7545,VALID,21,VALID,0.716295,
2002-12-27, 02:55:01,VALID,917.161,VALID,0,VALID,99.8782,VALID,0,VALID,18.7386,VALID,20,VALID,0.693973,
2002-12-27, 02:56:01,VALID,917.163,VALID,0,VALID,99.882,VALID,0,VALID,18.7415,VALID,6,VALID,0.298277,
2002-12-27, 02:57:01,VALID,917.165,VALID,0.2,VALID,99.8744,VALID,0,VALID,18.7418,VALID,5,VALID,0.331342,
2002-12-27, 02:58:01,VALID,917.164,VALID,0,VALID,99.8833,VALID,-0.0169808,VALID,18.7515,VALID,8,VALID,0.172098,
2002-12-27, 02:59:01,VALID,917.153,VALID,0,VALID,99.8922,VALID,-0.0339617,VALID,18.7545,VALID,17,VALID,0.258594,
2002-12-27, 03:00:01,VALID,917.153,VALID,0,VALID,99.8845,VALID,0,VALID,18.7739,VALID,17,VALID,0.21942,
2002-12-27, 03:01:01,VALID,917.146,VALID,0,VALID,99.8858,VALID,0,VALID,18.7868,VALID,17,VALID,0.0252757,
2002-12-27, 03:02:01,VALID,917.138,VALID,0,VALID,99.8756,VALID,0,VALID,18.7999,VALID,17,VALID,0.109786,
2002-12-27, 03:03:01,VALID,917.126,VALID,0,VALID,99.8795,VALID,0,VALID,18.7935,VALID,15,VALID,0.433036,
2002-12-27, 03:04:01,VALID,917.105,VALID,0,VALID,99.8833,VALID,-0.0169808,VALID,18.79,VALID,15,VALID,0.407813,
2002-12-27, 03:05:01,VALID,917.102,VALID,0,VALID,99.8896,VALID,0,VALID,18.7808,VALID,19,VALID,0.634215,
2002-12-27, 03:06:01,VALID,917.086,VALID,0,VALID,99.8731,VALID,0,VALID,18.7999,VALID,25,VALID,0.689798,
2002-12-27, 03:07:01,VALID,917.07,VALID,0,VALID,99.8744,VALID,0,VALID,18.8096,VALID,21,VALID,0.429018,
2002-12-27, 03:08:01,VALID,917.077,VALID,0,VALID,99.8744,VALID,0,VALID,18.8096,VALID,20,VALID,0.444922,
2002-12-27, 03:09:01,VALID,917.08,VALID,0,VALID,99.882,VALID,-0.0339617,VALID,18.8163,VALID,26,VALID,0.559375,
2002-12-27, 03:10:01,VALID,917.075,VALID,0,VALID,99.8744,VALID,-0.0339617,VALID,18.8188,VALID,24,VALID,0.470818,
2002-12-27, 03:11:01,VALID,917.089,VALID,0,VALID,99.8756,VALID,0,VALID,18.829,VALID,19,VALID,0.875206,
2002-12-27, 03:12:01,VALID,917.083,VALID,0,VALID,99.8795,VALID,0,VALID,18.8099,VALID,22,VALID,1.20179,
2002-12-27, 03:13:01,VALID,917.077,VALID,0,VALID,99.8795,VALID,0,VALID,18.8062,VALID,21,VALID,1.06406,
2002-12-27, 03:14:01,VALID,917.065,VALID,0,VALID,99.8782,VALID,0,VALID,18.7962,VALID,24,VALID,0.833734,
2002-12-27, 03:15:00,VALID,917.069,VALID,0,VALID,99.8807,VALID,-0.0339617,VALID,18.8034,VALID,23,VALID,0.554458,
2002-12-27, 03:16:00,VALID,917.061,VALID,0,VALID,99.8744,VALID,-0.0679233,VALID,18.8064,VALID,27,VALID,0.630134,
2002-12-27, 03:17:00,VALID,917.059,VALID,0,VALID,99.8807,VALID,0,VALID,18.7995,VALID,29,VALID,0.0931641,
2002-12-27, 03:18:00,VALID,917.061,VALID,0,VALID,99.8756,VALID,0,VALID,18.8032,VALID,29,VALID,0.0238839,
2002-12-27, 03:19:00,VALID,917.053,VALID,0,VALID,99.8769,VALID,0,VALID,18.7736,VALID,29,VALID,0.00735294,
2002-12-27, 03:20:00,VALID,917.051,VALID,0,VALID,99.882,VALID,0,VALID,18.7609,VALID,29,VALID,0,
2002-12-27, 03:21:00,VALID,917.038,VALID,0,VALID,99.8845,VALID,-0.0339617,VALID,18.7383,VALID,29,VALID,0.00803571,
2002-12-27, 03:22:00,VALID,917.036,VALID,0,VALID,99.8947,VALID,-0.0339617,VALID,18.7515,VALID,29,VALID,0,
2002-12-27, 03:23:00,VALID,917.048,VALID,0,VALID,99.8833,VALID,0,VALID,18.7478,VALID,29,VALID,0,
2002-12-27, 03:24:00,VALID,917.037,VALID,0,VALID,99.8845,VALID,0,VALID,18.7642,VALID,28,VALID,0.27045,
2002-12-27, 03:25:00,VALID,917.029,VALID,0,VALID,99.8884,VALID,0,VALID,18.7741,VALID,20,VALID,0.552679,
2002-12-27, 03:26:00,VALID,917.018,VALID,0,VALID,99.8769,VALID,0,VALID,18.7646,VALID,16,VALID,0.603906,
2002-12-27, 03:27:00,VALID,917.013,VALID,0,VALID,99.8795,VALID,0,VALID,18.7709,VALID,17,VALID,0.547545,
2002-12-27, 03:28:00,VALID,916.999,VALID,0,VALID,99.882,VALID,-0.0169808,VALID,18.7609,VALID,25,VALID,0.660616,
2002-12-27, 03:29:00,VALID,917.008,VALID,0,VALID,99.8884,VALID,-0.0509425,VALID,18.7646,VALID,23,VALID,0.335115,
2002-12-27, 03:30:00,VALID,917.001,VALID,0,VALID,99.8795,VALID,-0.0339617,VALID,18.7741,VALID,14,VALID,0.361161,
2002-12-27, 03:31:00,VALID,917.005,VALID,0,VALID,99.8782,VALID,-0.0679233,VALID,18.7873,VALID,14,VALID,0.315402,
2002-12-27, 03:32:00,VALID,917.002,VALID,0,VALID,99.8795,VALID,0,VALID,18.7932,VALID,14,VALID,0,
2002-12-27, 03:33:00,VALID,917.017,VALID,0,VALID,99.882,VALID,-0.0339617,VALID,18.7833,VALID,338,VALID,0.0891544,
2002-12-27, 03:34:00,VALID,917.02,VALID,0,VALID,99.8845,VALID,0,VALID,18.7512,VALID,253,VALID,0.10067,
2002-12-27, 03:35:00,VALID,917.032,VALID,0,VALID,99.8807,VALID,-0.0169808,VALID,18.7415,VALID,253,VALID,0.0291016,
2002-12-27, 03:36:00,VALID,917.03,VALID,0,VALID,99.8947,VALID,0,VALID,18.7289,VALID,253,VALID,0.0160714,
2002-12-27, 03:37:00,VALID,917.026,VALID,0,VALID,99.8934,VALID,-0.0509425,VALID,18.7356,VALID,253,VALID,0,
2002-12-27, 03:38:00,VALID,917.032,VALID,0,VALID,99.8922,VALID,-0.0169808,VALID,18.7356,VALID,253,VALID,0.00925164,